METEOR 2-11 DEB, 60005

Orbit data source: Space-Track

METEOR 2-11 DEB, 60005 is space debris in LEO originally from a launch on Thu, 05 Jul 1984 UTC launched from the Plesetsk Missile And Space Complex (PKMTR). Debris objects in space refer to the collection of defunct objects orbiting the Earth. Examples of debris include non-operational satellites, rocket bodies, and fragments generated from explosions, collisions, or faulty payload assembly.

Loading next visibility...
Identifier
60005, 1984-072AA
Orbit
LEO
Last TLE update
1 day ago
Origin
Manufacturer
Unknown
Mission
Spacecraft
Bus & Motor
Unknown
Mass
Unknown
Launch date (UTC)
1984-07-05 (41 years ago)
Launch vehicle
Unknown
Launch site
Plesetsk Missile And Space Complex (PKMTR)
Object type
Payload
Rocket body
Debris
Shape & HBR
Unknown
Radar Cross Section
Small (<0.1 m²)

Expand to show TLE details & history

TLE from 1 day ago
0 METEOR 2-11 DEB
1 60005U 84072AA  25183.01259248  .00002370  00000-0  16233-2 0  9991
2 60005  82.5199 288.1169 0024012 223.8886 136.0376 13.99113890387927
Epoch: 2025-07-02T00:18Z
TLE epoch observation values (Epoch: 2025-07-02T00:18:07.99Z)
Latitude
0.00003°
Longitude
3.28381°
Altitude
912.384 km
Speed
7.389 km/s
True Right ascension
19h 12m 28s
True Declination
0° 00' 00"
Sunlit
Object was in full shadow at epoch
Visualization orbit readout
Latitude
40.05637°
Longitude
176.07982°
Altitude
899.806 km
Speed
7.407 km/s
Apparent Right ascension
04h 45m 03s
Apparent Declination
3° 48' 04"
Sunlit
Object is in daylight
Visualization observer readout
Local Sidereal Time
14:27:56
Azimuth
315.9° NNW
Elevation
-36.146°
Doppler factor
1
Orbital elements
Apogee altitude
911.459 km
Perigee altitude
876.536 km
Semi-major axis
7,272.134 km
Eccentricity
0.0024
Inclination
82.5199°
RAAN
288.1169°
Arg. of periapsis
223.8886°
True anomaly
Unknown
Mean anomaly
136.0376°
Eccentric anomaly
Unknown
Mean motion
3.49986 °/min
Orbital period
102.86 mins
BSTAR
0.0016233
Loading maneuver chart data...
Loading SW <> Apogee altitude chart data...
Loading historical data...
Loading historical data...
Loading historical data...
Loading historical data...
Loading historical data...
Loading historical data...
Loading historical data...

METEOR 2-11 DEB Visibility forecast

Observer location: undefined°, undefined°

Span
Click to sort rows by Start time (UTC) header in descending order
Start Az.
Max El. time (UTC)
Max El. Az.
Max El.
End time (UTC)
End Az.
11 mins2025-07-03 07:17:52.990Z168.442° S2025-07-03 07:22:52.990Z107.527° ESE39.531°2025-07-03 07:28:52.990Z16.527° NNE
6 mins2025-07-03 09:04:52.990Z259.511° W2025-07-03 09:06:52.990Z283.705° WNW18.679°2025-07-03 09:10:52.990Z330.648° NNW
8 mins2025-07-03 18:05:52.990Z20.402° NNE2025-07-03 18:08:52.990Z66.514° ENE31.234°2025-07-03 18:13:52.990Z139.661° SSE
7 mins2025-07-03 19:49:52.990Z315.025° NNW2025-07-03 19:52:52.990Z271.623° WNW24.959°2025-07-03 19:56:52.990Z221.195° SW
|